This is the latest recevied weather packets stored in our database for station/object SR8NGO-1. If no packets are shown the sender has not sent any weather packets the latest 10 day(s).
| Time | Temp. | Humidity | Pressure | Rain* | Wind** | Luminosity | Snow |
|---|---|---|---|---|---|---|---|
| 1777358436 | 7.78° C | 72% | 1011.9 hPa | 137.92 mm | - | - | - |
| 1777357956 | 7.22° C | 71% | 1011.8 hPa | 137.92 mm | - | - | - |
| 1777357716 | 8.89° C | 70% | 1011.8 hPa | 137.92 mm | - | - | - |
| 1777357476 | 7.78° C | 69% | 1011.8 hPa | 137.92 mm | - | - | - |
| 1777357236 | 7.78° C | 70% | 1011.8 hPa | 137.92 mm | - | - | - |
| 1777356996 | 8.89° C | 70% | 1011.8 hPa | 137.92 mm | - | - | - |
| 1777356756 | 8.89° C | 70% | 1011.7 hPa | 137.92 mm | - | - | - |
| 1777356516 | 10° C | 70% | 1011.6 hPa | 137.92 mm | - | - | - |
| 1777356276 | 8.89° C | 70% | 1011.7 hPa | 137.92 mm | - | - | - |
| 1777356036 | 7.78° C | 70% | 1011.6 hPa | 137.92 mm | - | - | - |
| 1777355796 | 7.22° C | 72% | 1011.5 hPa | 137.92 mm | - | - | - |
| 1777355556 | 7.22° C | 73% | 1011.5 hPa | 137.92 mm | - | - | - |
| 1777355316 | 7.22° C | 73% | 1011.5 hPa | 137.92 mm | - | - | - |
| 1777355076 | 8.89° C | 73% | 1011.5 hPa | 137.92 mm | - | - | - |
| 1777354836 | 7.78° C | 74% | 1011.4 hPa | 137.92 mm | - | - | - |
| 1777354596 | 7.22° C | 75% | 1011.4 hPa | 137.92 mm | - | - | - |
| 1777354356 | 7.78° C | 76% | 1011.3 hPa | 137.92 mm | - | - | - |
| 1777354116 | 7.22° C | 77% | 1011.3 hPa | 137.92 mm | - | - | - |
| 1777353876 | 6.11° C | 77% | 1011.3 hPa | 137.92 mm | - | - | - |
| 1777353636 | 7.22° C | 78% | 1011.3 hPa | 137.92 mm | - | - | - |
| 1777353396 | 6.11° C | 79% | 1011.3 hPa | 137.92 mm | - | - | - |
| 1777353156 | 6.11° C | 81% | 1011.2 hPa | 137.92 mm | - | - | - |
| 1777352916 | 6.11° C | 83% | 1011.2 hPa | 137.92 mm | - | - | - |
| 1777352676 | 5° C | 81% | 1011.1 hPa | 136.91 mm | - | - | - |
| 1777352436 | 6.11° C | 84% | 1011.1 hPa | 136.91 mm | - | - | - |
* Rain latest hour (hover to see other rain measurements)
** Current wind speed in m/s (hover to see current wind gust speed)